TimeCST,TemperatureF,Dew PointF,Humidity,Sea Level PressureIn,VisibilityMPH,Wind Direction,Wind SpeedMPH,Gust SpeedMPH,PrecipitationIn,Events,Conditions,WindDirDegrees,DateUTC
12:53 AM,43.0,39.9,89,29.95,7.0,North,5.8,-,N/A,,Overcast,360,2012-12-08 06:53:00
1:45 AM,41.0,39.2,93,29.94,7.0,North,6.9,-,N/A,,Mostly Cloudy,350,2012-12-08 07:45:00
2:53 AM,37.9,36.0,93,29.97,5.0,North,5.8,-,N/A,,Scattered Clouds,10,2012-12-08 08:53:00
3:53 AM,36.0,35.1,97,29.97,2.0,NNE,5.8,-,N/A,,Clear,20,2012-12-08 09:53:00
4:01 AM,35.6,33.8,93,29.95,1.2,North,5.8,-,N/A,,Clear,10,2012-12-08 10:01:00
4:21 AM,35.6,35.6,100,29.95,2.5,NNE,4.6,-,N/A,,Scattered Clouds,30,2012-12-08 10:21:00
4:30 AM,35.6,35.6,100,29.95,2.0,NNE,3.5,-,N/A,,Mostly Cloudy,20,2012-12-08 10:30:00
4:42 AM,35.6,35.6,100,29.96,1.8,NNE,3.5,-,N/A,,Overcast,30,2012-12-08 10:42:00
5:03 AM,37.4,35.6,93,29.96,2.0,Calm,Calm,-,N/A,,Overcast,0,2012-12-08 11:03:00
5:22 AM,35.6,33.8,93,29.96,1.8,North,5.8,-,N/A,,Overcast,10,2012-12-08 11:22:00
5:29 AM,35.6,33.8,93,29.96,2.0,NNE,4.6,-,N/A,,Mostly Cloudy,30,2012-12-08 11:29:00
5:40 AM,35.6,33.8,93,29.96,3.0,NE,4.6,-,N/A,,Scattered Clouds,40,2012-12-08 11:40:00
5:53 AM,34.0,33.1,96,29.99,2.0,NNE,4.6,-,N/A,,Partly Cloudy,20,2012-12-08 11:53:00
6:00 AM,35.6,33.8,93,29.97,1.0,NNE,4.6,-,N/A,,Scattered Clouds,30,2012-12-08 12:00:00
6:05 AM,35.6,33.8,93,29.96,1.2,NE,5.8,-,N/A,,Mostly Cloudy,40,2012-12-08 12:05:00
6:15 AM,33.8,33.8,100,29.97,0.5,NNE,4.6,-,N/A,Fog,Fog,20,2012-12-08 12:15:00
6:22 AM,33.8,33.8,100,29.97,0.2,NNE,4.6,-,N/A,Fog,Fog,20,2012-12-08 12:22:00
6:40 AM,35.6,33.8,93,29.97,0.5,NNE,5.8,-,N/A,Fog,Fog,20,2012-12-08 12:40:00
6:50 AM,35.6,33.8,93,29.98,0.2,NNE,4.6,-,N/A,Fog,Fog,20,2012-12-08 12:50:00
6:53 AM,35.1,34.0,96,30.00,0.2,NNE,3.5,-,N/A,Fog,Fog,20,2012-12-08 12:53:00
7:13 AM,35.6,33.8,93,29.98,0.2,NE,4.6,-,N/A,Fog,Fog,40,2012-12-08 13:13:00
7:48 AM,35.6,33.8,93,29.99,0.2,NE,3.5,-,N/A,Fog,Fog,50,2012-12-08 13:48:00
7:53 AM,35.1,34.0,96,30.01,0.2,NE,4.6,-,N/A,Fog,Fog,50,2012-12-08 13:53:00
8:17 AM,35.6,33.8,93,30.00,0.5,East,6.9,-,N/A,Fog,Fog,80,2012-12-08 14:17:00
8:33 AM,35.6,33.8,93,30.00,0.2,East,6.9,-,N/A,Fog,Fog,80,2012-12-08 14:33:00
8:53 AM,35.1,34.0,96,30.01,0.2,NE,6.9,-,N/A,Fog,Fog,50,2012-12-08 14:53:00
9:30 AM,35.6,33.8,93,29.99,0.5,ENE,9.2,-,N/A,Fog,Fog,70,2012-12-08 15:30:00
9:44 AM,35.6,35.6,100,29.99,1.2,ENE,8.1,-,N/A,,Overcast,70,2012-12-08 15:44:00
9:53 AM,36.0,35.1,97,30.01,1.8,ENE,6.9,-,N/A,,Overcast,70,2012-12-08 15:53:00
10:02 AM,35.6,35.6,100,30.00,2.5,ENE,8.1,-,N/A,,Overcast,60,2012-12-08 16:02:00
10:04 AM,37.4,35.6,93,30.00,3.0,NE,8.1,-,N/A,,Overcast,50,2012-12-08 16:04:00
10:21 AM,37.4,35.6,93,30.00,4.0,ENE,5.8,-,N/A,,Overcast,60,2012-12-08 16:21:00
10:53 AM,39.9,37.0,89,30.02,6.0,NE,8.1,-,N/A,,Overcast,50,2012-12-08 16:53:00
11:05 AM,39.2,35.6,87,30.00,6.0,ENE,10.4,-,N/A,,Haze,60,2012-12-08 17:05:00
11:53 AM,41.0,35.1,79,29.98,8.0,ENE,9.2,-,N/A,,Overcast,60,2012-12-08 17:53:00
12:32 PM,42.8,33.8,70,29.95,9.0,East,8.1,-,N/A,,Mostly Cloudy,80,2012-12-08 18:32:00
12:53 PM,42.1,35.1,76,29.96,8.0,ENE,8.1,-,N/A,,Overcast,70,2012-12-08 18:53:00
1:53 PM,41.0,34.0,76,29.95,8.0,East,8.1,-,N/A,,Overcast,80,2012-12-08 19:53:00
2:53 PM,41.0,34.0,76,29.95,8.0,ENE,5.8,-,N/A,,Overcast,60,2012-12-08 20:53:00
4:20 PM,42.8,33.8,70,29.92,10.0,East,9.2,-,N/A,,Overcast,100,2012-12-08 22:20:00
4:53 PM,42.1,34.0,73,29.92,10.0,East,9.2,-,N/A,,Overcast,80,2012-12-08 22:53:00
6:53 PM,41.0,36.0,82,29.91,5.0,East,6.9,-,N/A,,Haze,90,2012-12-09 00:53:00
7:24 PM,41.0,35.6,81,29.88,8.0,East,6.9,-,N/A,,Overcast,80,2012-12-09 01:24:00
7:49 PM,41.0,37.4,87,29.89,5.0,East,6.9,-,N/A,,Overcast,100,2012-12-09 01:49:00
7:53 PM,41.0,37.0,86,29.91,5.0,East,8.1,-,N/A,,Overcast,90,2012-12-09 01:53:00
8:04 PM,41.0,37.4,87,29.90,5.0,East,6.9,-,N/A,,Overcast,90,2012-12-09 02:04:00
8:29 PM,39.2,37.4,93,29.90,2.5,ENE,6.9,-,0.01,Rain,Light Rain,70,2012-12-09 02:29:00
8:53 PM,39.9,37.9,93,29.92,2.0,ENE,5.8,-,0.03,Rain,Light Rain,70,2012-12-09 02:53:00
9:27 PM,39.2,37.4,93,29.88,3.0,East,6.9,-,0.01,,Overcast,80,2012-12-09 03:27:00
9:53 PM,39.0,37.0,93,29.90,4.0,East,9.2,-,0.01,,Overcast,90,2012-12-09 03:53:00
10:41 PM,39.2,37.4,93,29.89,2.5,East,9.2,-,N/A,,Overcast,90,2012-12-09 04:41:00
10:53 PM,39.0,37.0,93,29.90,2.5,East,5.8,-,N/A,,Overcast,90,2012-12-09 04:53:00
11:14 PM,39.2,37.4,93,29.88,3.0,East,5.8,-,N/A,,Overcast,90,2012-12-09 05:14:00
11:53 PM,39.0,37.0,93,29.89,4.0,East,9.2,-,N/A,,Overcast,100,2012-12-09 05:53:00